Location: ??????
(41.3164°N, 22.6615°E)
Time: 03:43:10
(UTC+00:00)

CANX-2 - Pass Details

Date: 15 August 2022
Orbit: 591 x 608 km, 97.7° (Epoch: 03 October)

Event Time Altitude Azimuth Distance (km) Brightness Sun altitude
Rises 02:11:35 0° 13° (NNE) 2,852 ? -15.3°
Reaches altitude 10° 02:13:46 10° 14° (NNE) 1,948 ? -14.9°
Maximum altitude 02:18:00 82° 101° (E) 613 ? -14.3°
Enters shadow 02:22:05 11° 191° (S) 1,883 ? -13.6°
